Find Starlink 32402

NORAD ID: 61708 Int'l Des: 2024-196 Owner: SPXS Country: US Constellation: starlink operational
LEOCIRCULAR

Live Position

Loading 3D Globe...

About Starlink 32402

Description loading...

Upcoming Passes

Passes for default location (London). Set your location on the main map for personalized predictions.

Altitude History

Loading altitude history...

Two-Line Element Set

1 61708U 24196B 26103.80797018 .00004209 00000-0 15403-3 0 9997
2 61708 53.1600 298.1978 0001201 87.9599 272.1540 15.30225887 82534
Epoch: Apr 13, 2026 • Age: 14 hours

Current Status

Altitude 478.0 km
Velocity 7.63 km/s
Sub-Earth Point 39.80°N, 14.72°W
Launch Date Oct 30, 2024
Age 1.4 years
Type internet

Technical Details

Classification Payload
Mass 730.00 kg
Dry Mass 700.00 kg
Total Mass 730.00 kg
Length 0.30 m
Diameter 4.10 m
Span 29.00 m
Shape Box + pan
Manufacturer SPXS
Bus Type Starlink V2M
Phase Status In Orbit
Owner/State SPXS/US

Most Searched